When you browse on this site, cookies collect data to enhance your experience and personalize the content and advertising you see.
Visit our Privacy Policy to learn more. By continuing to use the site, you agree to this use of cookies and data.
  • In United Kingdom
  • List of Countries
  • For 7 days
  • Water Temperature
  • Satellite Maps
  • Weather Map
  • Weather Widgets
  • user-avatar
    Login

    Hourly Weather Piaui

    Today, 25 June, Tuesday

    Time Temperature Precipitation Wind Pressure Humidity
    00:00 +23°C° 0 mm 1 mps 720 mmHg 53%
    01:00 +23°C° 0 mm 2 mps 720 mmHg 59%
    02:00 +21°C° 0 mm 2 mps 720 mmHg 65%
    03:00 +21°C° 0 mm 2 mps 719 mmHg 74%
    04:00 +21°C° 0 mm 2 mps 720 mmHg 79%
    05:00 +21°C° 0 mm 2 mps 720 mmHg 84%
    06:00 +20°C° 0 mm 2 mps 720 mmHg 89%
    07:00 +22°C° 0 mm 3 mps 721 mmHg 79%
    08:00 +25°C° 0 mm 3 mps 721 mmHg 69%
    09:00 +27°C° 0 mm 4 mps 722 mmHg 60%
    10:00 +28°C° 0 mm 4 mps 722 mmHg 53%
    11:00 +30°C° 0 mm 3 mps 721 mmHg 46%
    12:00 +31°C° 0 mm 3 mps 721 mmHg 39%
    13:00 +33°C° 0 mm 3 mps 721 mmHg 38%
    14:00 +33°C° 0 mm 3 mps 720 mmHg 36%
    15:00 +34°C° 0 mm 2 mps 719 mmHg 35%
    16:00 +31°C° 0 mm 2 mps 719 mmHg 41%
    17:00 +29°C° 0 mm 2 mps 719 mmHg 47%
    18:00 +27°C° 0 mm 1 mps 719 mmHg 52%
    19:00 +26°C° 0 mm 1 mps 720 mmHg 55%
    20:00 +25°C° 0 mm 1 mps 720 mmHg 57%
    21:00 +24°C° 0 mm 1 mps 720 mmHg 59%
    22:00 +24°C° 0 mm 1 mps 720 mmHg 62%
    23:00 +23°C° 0 mm 1 mps 720 mmHg 64%

    Tomorrow, 26 June, Wednesday

    Time Temperature Precipitation Wind Pressure Humidity
    00:00 +23°C° 0 mm 1 mps 720 mmHg 67%
    01:00 +22°C° 0 mm 1 mps 720 mmHg 68%
    02:00 +21°C° 0 mm 2 mps 720 mmHg 69%
    03:00 +21°C° 0 mm 2 mps 720 mmHg 70%
    04:00 +21°C° 0 mm 2 mps 720 mmHg 75%
    05:00 +20°C° 0 mm 2 mps 721 mmHg 79%
    06:00 +20°C° 0 mm 2 mps 721 mmHg 84%
    07:00 +22°C° 0 mm 3 mps 722 mmHg 75%
    08:00 +25°C° 0 mm 3 mps 722 mmHg 67%
    09:00 +27°C° 0 mm 4 mps 722 mmHg 59%
    10:00 +28°C° 0 mm 4 mps 722 mmHg 52%
    11:00 +30°C° 0 mm 4 mps 722 mmHg 46%
    12:00 +33°C° 0 mm 4 mps 722 mmHg 39%
    13:00 +33°C° 0 mm 3 mps 721 mmHg 37%
    14:00 +33°C° 0 mm 3 mps 721 mmHg 35%
    15:00 +34°C° 0 mm 3 mps 720 mmHg 33%
    16:00 +31°C° 0 mm 2 mps 720 mmHg 38%
    17:00 +29°C° 0 mm 2 mps 720 mmHg 43%
    18:00 +27°C° 0 mm 1 mps 720 mmHg 48%
    19:00 +26°C° 0 mm 1 mps 720 mmHg 50%
    20:00 +25°C° 0 mm 2 mps 720 mmHg 51%
    21:00 +24°C° 0 mm 2 mps 721 mmHg 52%
    22:00 +23°C° 0 mm 2 mps 721 mmHg 56%
    23:00 +23°C° 0 mm 2 mps 721 mmHg 60%

    Day after tomorrow, 27 June, Thursday

    Time Temperature Precipitation Wind Pressure Humidity
    00:00 +23°C° 0 mm 2 mps 721 mmHg 64%
    01:00 +23°C° 0 mm 2 mps 721 mmHg 68%
    02:00 +21°C° 0 mm 2 mps 721 mmHg 72%
    03:00 +21°C° 0 mm 2 mps 720 mmHg 76%
    04:00 +21°C° 0 mm 3 mps 721 mmHg 77%
    05:00 +20°C° 0 mm 3 mps 721 mmHg 79%
    06:00 +20°C° 0 mm 3 mps 721 mmHg 80%
    07:00 +21°C° 0 mm 3 mps 722 mmHg 74%
    08:00 +23°C° 0 mm 4 mps 722 mmHg 68%
    09:00 +26°C° 0 mm 4 mps 723 mmHg 63%
    10:00 +27°C° 0 mm 4 mps 723 mmHg 57%
    11:00 +29°C° 0 mm 4 mps 723 mmHg 52%
    12:00 +32°C° 0 mm 4 mps 722 mmHg 47%
    13:00 +32°C° 0 mm 4 mps 722 mmHg 45%
    14:00 +33°C° 0 mm 3 mps 721 mmHg 43%
    15:00 +33°C° 0 mm 3 mps 720 mmHg 41%
    16:00 +30°C° 0 mm 3 mps 720 mmHg 46%
    17:00 +28°C° 0 mm 2 mps 720 mmHg 51%
    18:00 +27°C° 0 mm 2 mps 720 mmHg 57%
    19:00 +26°C° 0 mm 2 mps 721 mmHg 59%
    20:00 +25°C° 0 mm 2 mps 721 mmHg 61%
    21:00 +24°C° 0 mm 3 mps 721 mmHg 63%
    22:00 +24°C° 0 mm 2 mps 721 mmHg 67%
    23:00 +23°C° 0 mm 2 mps 721 mmHg 70%

    28 June, Friday

    Time Temperature Precipitation Wind Pressure Humidity
    00:00 +21°C° 0 mm 2 mps 721 mmHg 74%
    01:00 +21°C° 0 mm 2 mps 721 mmHg 74%
    02:00 +21°C° 0 mm 3 mps 720 mmHg 74%
    03:00 +21°C° 0 mm 3 mps 720 mmHg 75%
    04:00 +21°C° 0 mm 3 mps 720 mmHg 77%
    05:00 +20°C° 0 mm 3 mps 720 mmHg 79%
    06:00 +20°C° 0 mm 3 mps 721 mmHg 81%
    07:00 +22°C° 0 mm 4 mps 721 mmHg 74%
    08:00 +23°C° 0 mm 4 mps 722 mmHg 67%
    09:00 +26°C° 0 mm 5 mps 722 mmHg 60%
    10:00 +28°C° 0 mm 5 mps 722 mmHg 53%
    11:00 +29°C° 0 mm 4 mps 722 mmHg 46%
    12:00 +32°C° 0 mm 4 mps 722 mmHg 38%
    13:00 +33°C° 0 mm 4 mps 721 mmHg 36%
    14:00 +33°C° 0 mm 4 mps 721 mmHg 34%
    15:00 +34°C° 0 mm 4 mps 720 mmHg 32%
    16:00 +31°C° 0 mm 3 mps 720 mmHg 36%
    17:00 +29°C° 0 mm 3 mps 720 mmHg 40%
    18:00 +27°C° 0 mm 2 mps 719 mmHg 44%
    19:00 +26°C° 0 mm 2 mps 720 mmHg 45%
    20:00 +25°C° 0 mm 3 mps 720 mmHg 47%
    21:00 +25°C° 0 mm 3 mps 721 mmHg 48%
    22:00 +24°C° 0 mm 3 mps 721 mmHg 54%
    23:00 +24°C° 0 mm 3 mps 721 mmHg 60%

    29 June, Saturday

    Time Temperature Precipitation Wind Pressure Humidity
    00:00 +22°C° 0 mm 3 mps 721 mmHg 67%
    01:00 +22°C° 0 mm 3 mps 720 mmHg 71%
    02:00 +22°C° 0 mm 3 mps 720 mmHg 75%
    03:00 +21°C° 0 mm 3 mps 720 mmHg 79%
    04:00 +21°C° 0 mm 3 mps 720 mmHg 81%
    05:00 +20°C° 0 mm 3 mps 720 mmHg 83%
    06:00 +20°C° 0 mm 3 mps 720 mmHg 85%
    07:00 +21°C° 0 mm 4 mps 720 mmHg 79%
    08:00 +23°C° 0 mm 4 mps 721 mmHg 73%
    09:00 +25°C° 0 mm 5 mps 721 mmHg 67%
    10:00 +26°C° 0 mm 5 mps 721 mmHg 63%
    11:00 +27°C° 0 mm 5 mps 721 mmHg 59%
    12:00 +28°C° 0 mm 5 mps 721 mmHg 55%
    13:00 +29°C° 0 mm 4 mps 720 mmHg 51%
    14:00 +30°C° 0 mm 4 mps 720 mmHg 48%
    15:00 +32°C° 0 mm 4 mps 719 mmHg 45%
    16:00 +30°C° 0 mm 3 mps 719 mmHg 48%
    17:00 +28°C° 0 mm 2 mps 719 mmHg 51%
    18:00 +27°C° 0 mm 2 mps 720 mmHg 55%
    19:00 +27°C° 0 mm 2 mps 720 mmHg 56%
    20:00 +26°C° 0 mm 2 mps 720 mmHg 57%
    21:00 +25°C° 0 mm 2 mps 721 mmHg 58%
    22:00 +25°C° 0 mm 2 mps 721 mmHg 60%
    23:00 +24°C° 0 mm 2 mps 720 mmHg 62%

    30 June, Sunday

    Time Temperature Precipitation Wind Pressure Humidity
    00:00 +23°C° 0 mm 1 mps 720 mmHg 65%
    01:00 +23°C° 0 mm 2 mps 720 mmHg 66%
    02:00 +23°C° 0 mm 2 mps 720 mmHg 68%
    03:00 +22°C° 0 mm 3 mps 720 mmHg 69%
    04:00 +21°C° 0 mm 3 mps 720 mmHg 75%
    05:00 +21°C° 0 mm 3 mps 720 mmHg 81%
    06:00 +20°C° 0 mm 3 mps 720 mmHg 87%
    07:00 +22°C° 0 mm 3 mps 721 mmHg 77%
    08:00 +25°C° 0 mm 4 mps 722 mmHg 68%
    09:00 +27°C° 0 mm 5 mps 722 mmHg 59%
    10:00 +28°C° 0 mm 5 mps 722 mmHg 54%
    11:00 +29°C° 0 mm 4 mps 722 mmHg 50%
    12:00 +32°C° 0 mm 4 mps 721 mmHg 45%
    13:00 +32°C° 0 mm 4 mps 721 mmHg 43%
    14:00 +33°C° 0 mm 4 mps 720 mmHg 41%
    15:00 +33°C° 0 mm 3 mps 719 mmHg 39%
    16:00 +31°C° 0 mm 3 mps 719 mmHg 43%
    17:00 +29°C° 0 mm 2 mps 719 mmHg 47%
    18:00 +27°C° 0 mm 2 mps 719 mmHg 52%
    19:00 +26°C° 0 mm 1 mps 720 mmHg 54%
    20:00 +25°C° 0 mm 1 mps 720 mmHg 56%
    21:00 +24°C° 0 mm 1 mps 720 mmHg 58%
    22:00 +23°C° 0 mm 2 mps 720 mmHg 58%
    23:00 +23°C° 0 mm 2 mps 721 mmHg 57%
    Show more